Location: Unspecified
(0.0000°N, 0.0000°E)
Time: 17:42:50
(UTC+00:00)

FORMOSAT 3E - Visible Passes

Search period start: 28 May 2024 00:00
Search period end: 07 June 2024 00:00
Orbit: 742 x 840 km, 72.0° (Epoch: 28 May)

Date Brightness Start Highest point End Pass type
(mag) Time Alt. Az. Time Alt. Az. Time Alt. Az.
01 Jun 10.7 20:58:18 10° NNW 20:58:53 13° NNW 20:58:53 13° NNW visible
02 Jun 10.1 20:28:14 10° N 20:29:51 20° N 20:29:51 20° N visible
03 Jun 9.7 19:58:26 10° N 20:00:51 23° NNE 20:00:51 23° NNE visible
04 Jun 9.6 19:29:02 10° NNE 19:31:55 20° NE 19:31:55 20° NE visible
04 Jun 10.8 21:11:29 10° NW 21:12:43 15° WNW 21:12:43 15° WNW visible
05 Jun 9.9 19:00:24 10° NE 19:03:02 14° ENE 19:03:02 14° ENE visible
05 Jun 9.8 20:40:33 10° NW 20:43:50 30° WNW 20:43:50 30° WNW visible
06 Jun 8.5 20:10:00 10° NNW 20:15:01 60° W 20:15:01 60° W visible
